• Join FlightAware (Why Join?)
  • Login
  • US Flag 
05:42PM EDT


 

Airport Tracker/Info


-or-


 

Live Flight TrackerFlight Track Log ✈ EJA929 ✈ 29-Aug-2013 ✈ KTUS - KIWA

Flight Track Log - Related Links

Times and Time Zones

All times are in EDT time to prevent confusion due to time zone crossing. See the EJA929 flight status page for this flight to view local times or setup timezone preferences in your user account.

Time Position Orientation Groundspeed Altitude Reporting Facility
EDT Latitude Longitude Course Direction KTS MPH feet Rate Location/Type
02:31PM 32.1089 -110.9308 334° Northwest 173 199 3,100  Level Albuquerque Center
02:32PM 32.0722 -110.8853 134° Southeast 215 247 6,400 3,840 Climbing Albuquerque Center
02:33PM 32.0425 -110.8811 173° South 228 262 9,000 3,780 Climbing Albuquerque Center
02:34PM 32.0511 -110.9586 277° West 304 350 12,600 2,460 Climbing Albuquerque Center
02:35PM 32.1453 -110.9914 344° North 347 399 14,100 660 Climbing Albuquerque Center
02:36PM 32.2722 -111.0067 354° North 408 470 14,000  Descending Albuquerque Center
02:37PM 32.3985 -111.0848 334° Northwest  Level FlightAware Approximate
02:37PM 32.4003 -111.0667 338° Northwest 437 503 14,100  Level Albuquerque Center
02:38PM 32.5092 -111.1261 335° Northwest 435 501 14,100  Level Albuquerque Center
02:39PM 32.6189 -111.1864 335° Northwest 434 499 14,100 -300 Level Albuquerque Center
02:40PM 32.7292 -111.2486 335° Northwest 438 504 13,600 -660 Descending Albuquerque Center
02:41PM 32.8294 -111.3053 335° Northwest 408 470 12,800 -1,320 Descending Albuquerque Center
02:42PM 32.9122 -111.3492 336° Northwest 329 379 10,900 -1,920 Descending Albuquerque Center
02:43PM 33.0017 -111.4014 334° Northwest 300 345 8,900 -1,800 Descending Albuquerque Center
02:44PM 33.0700 -111.4514 328° Northwest 288 331 7,300 -1,800 Descending Albuquerque Center
02:45PM 33.1414 -111.4972 332° Northwest 289 333 5,300 -1,680 Descending Albuquerque Center
02:46PM 33.2053 -111.5442 328° Northwest 270 311 3,900 -1,200 Descending Albuquerque Center
02:47PM 33.2486 -111.5911 318° Northwest 214 246 2,900 -1,020 Descending Albuquerque Center
02:48PM 33.2800 -111.6289 315° West 166 191 1,900 -780 Descending Albuquerque Center
02:49PM 33.3094 -111.6619 317° Northwest 142 163 1,300 -600 Descending Albuquerque Center
02:51PM 33.3078 -111.6555 North  Level Estimated